Location: Cedar Brake
(32.2526°N, 97.8459°W)
Time: 07:55:40
(UTC+00:00)

SJ-6B - Pass Details

Date: 22 April 2026
Orbit: 453 x 498 km, 97.3° (Epoch: 15 May)

Event Time Altitude Azimuth Distance (km) Brightness Sun altitude
Rises 02:13:07 0° 183° (S) 2,572 6.0 -14.3°
Reaches altitude 10° 02:15:16 10° 191° (S) 1,690 5.2 -14.7°
Maximum altitude 02:18:42 39° 261° (W) 753 4.0 -15.4°
Drops below altitude 10° 02:22:08 10° 332° (NNW) 1,686 6.1 -16.0°
Sets 02:24:17 0° 340° (NNW) 2,564 7.0 -16.4°
